Flag for Reunion (French) Weather past 2 weeks in Saint-Denis, Reunion (French)

Now
73 °F

Partly sunny.


Feels Like: 76 °F
Forecast: 67 / 77 °F
Wind: 16 mph from Southeast

Location: Saint-Denis / Gillot

Current Time: Sep 16, 2014 at 5:31:59 PM

Latest Report: Sep 16, 2014 at 5:00 PM


Visibility: N/A

Pressure: 30.07 "Hg

Humidity: 61%

Dew point: 59 °F

Location of Saint-DenisLocation

Historic Weather in Saint-Denis — Graph

°F

Saint-Denis temperature yesterday

Maximum temperature yesterday: 79 °F (at 9:30 AM)
Minimum temperature yesterday: 66 °F (at 4:00 AM)
Average temperature yesterday: 73 °F

Past Weeks' High & Low Weather Summary

 TemperatureHumidityPressure
High81 °F (Sep 3, 12:30 PM)88% (Sep 1, 10:00 PM)30.33 "Hg (Sep 1, 10:00 PM)
Low61 °F (Sep 11, 3:00 AM)39% (Sep 7, 12:30 PM)29.92 "Hg (Sep 2, 1:00 PM)
Average72 °F65%30.17 "Hg
* Reported Sep 1 4:00 PM — Sep 16 4:30 PM, Saint-Denis, Weather by CustomWeather, © 2014

Note: Actual official high and low records may vary slightly from our data, if they occured in-between our weather recording intervals... More about our weather records

Advertising

Saint-Denis weather history for previous 24 hours

 ConditionsComfort  
Time TempWeatherWind HumidityBarometerVisibility
4:30 PM
Sep 16
73 °FPartly sunny.17 mph61%30.07 "HgN/A
4:00 PM75 °FPartly sunny.20 mph61%30.07 "HgN/A
3:30 PM75 °FPartly sunny.17 mph61%30.07 "HgN/A
3:00 PM77 °FPartly sunny.22 mph54%30.07 "HgN/A
1:54 PM81 °FScattered clouds.24 mph48%30.07 "HgN/A
1:30 PM79 °FPassing clouds.21 mph51%30.07 "HgN/A
1:00 PM81 °FPassing clouds.22 mph48%30.09 "HgN/A
12:30 PM79 °FPassing clouds.23 mph54%30.09 "HgN/A
12:00 PM79 °FPassing clouds.23 mph54%30.12 "HgN/A
11:30 AM77 °FPassing clouds.23 mph57%30.12 "HgN/A
11:00 AM77 °FPassing clouds.22 mph57%30.15 "HgN/A
10:30 AM77 °FPassing clouds.22 mph61%30.15 "HgN/A
10:00 AM77 °FPassing clouds.21 mph57%30.15 "HgN/A
9:30 AM77 °FPassing clouds.16 mph57%30.15 "HgN/A
9:00 AM75 °FPassing clouds.16 mph57%30.18 "HgN/A
8:30 AM75 °FPassing clouds.17 mph61%30.18 "HgN/A
8:00 AM73 °FPassing clouds.13 mph65%30.18 "HgN/A
7:30 AM72 °FPassing clouds.7 mph65%30.18 "HgN/A
6:30 AM64 °FPassing clouds.6 mph73%30.15 "HgN/A
6:00 AM66 °FPassing clouds.7 mph73%30.15 "HgN/A
5:00 AM66 °FPassing clouds.7 mph78%30.15 "HgN/A
4:30 AM66 °FPassing clouds.8 mph73%30.15 "HgN/A
4:00 AM68 °FClear.8 mph73%30.15 "HgN/A
3:30 AM68 °FClear.7 mph73%30.15 "HgN/A
3:00 AM68 °FClear.9 mph73%30.15 "HgN/A
2:30 AM70 °FClear.10 mph69%30.15 "HgN/A
2:00 AM70 °FPassing clouds.7 mph73%30.15 "HgN/A
1:30 AM72 °FOvercast.7 mph69%30.18 "HgN/A
1:00 AM70 °FMostly cloudy.7 mph78%30.18 "HgN/A
12:30 AM68 °FMostly cloudy.5 mph73%30.18 "HgN/A
12:00 AM68 °FPassing clouds.6 mph69%30.21 "HgN/A
11:30 PM
Sep 15
68 °FPassing clouds.5 mph73%30.21 "HgN/A
11:00 PM70 °FPassing clouds.2 mph73%30.21 "HgN/A
10:00 PM66 °FPassing clouds.7 mph78%30.21 "HgN/A
9:30 PM66 °FPassing clouds.2 mph78%30.21 "HgN/A
9:00 PM70 °FPassing clouds.3 mph69%30.21 "HgN/A
8:30 PM72 °FPassing clouds.3 mph69%30.18 "HgN/A
8:00 PM72 °FPassing clouds.9 mph69%30.18 "HgN/A
7:30 PM72 °FPassing clouds.6 mph69%30.18 "HgN/A
7:00 PM72 °FPassing clouds.5 mph69%30.18 "HgN/A
6:30 PM73 °FPassing clouds.7 mph65%30.18 "HgN/A
6:00 PM73 °FPassing clouds.9 mph65%30.18 "HgN/A
5:30 PM75 °FPassing clouds.10 mph61%30.15 "HgN/A
5:00 PM75 °FPartly sunny.12 mph57%30.15 "HgN/A
Weather by CustomWeather, © 2014

See weather overviewHow to use our weather pages